| time (UTC) | temp F | wind direction | speed knots | gust knots | rain 1hr in | rain 24hr in | rain mn in | humidity % | barometer mb |
| 20260510220949 | 64 | 194 | 7.0 | 7.8 | 0.00 | 0.00 | 0.00 | 67 | 1019.9 |
| 20260510220444 | 64 | 309 | 0.0 | 0.0 | 0.00 | 0.00 | 0.00 | 68 | 1020.0 |
| 20260510215941 | 63 | 190 | 3.5 | 4.3 | 0.00 | 0.00 | 0.00 | 69 | 1019.9 |
| 20260510215438 | 63 | 210 | 3.5 | 4.3 | 0.00 | 0.00 | 0.00 | 69 | 1020.0 |
| 20260510214936 | 62 | 234 | 2.6 | 4.3 | 0.00 | 0.00 | 0.00 | 70 | 1019.6 |
| 20260510214433 | 64 | 232 | 4.3 | 6.1 | 0.00 | 0.00 | 0.00 | 67 | 1019.6 |
| 20260510213930 | 64 | 243 | 2.6 | 4.3 | 0.00 | 0.00 | 0.00 | 69 | 1019.7 |
| 20260510213426 | 64 | 326 | 0.0 | 0.0 | 0.00 | 0.00 | 0.00 | 68 | 1019.9 |
| 20260510212922 | 65 | 169 | 3.5 | 4.3 | 0.00 | 0.00 | 0.00 | 69 | 1019.7 |
| 20260510212420 | 65 | 269 | 0.0 | 0.9 | 0.00 | 0.00 | 0.00 | 68 | 1019.7 |
| 20260510211916 | 64 | 182 | 4.3 | 5.2 | 0.00 | 0.00 | 0.00 | 68 | 1019.6 |
| 20260510211413 | 62 | 304 | 1.7 | 2.6 | 0.00 | 0.00 | 0.00 | 72 | 1019.8 |
| 20260510210908 | 62 | 210 | 3.5 | 6.1 | 0.00 | 0.00 | 0.00 | 72 | 1019.7 |
| 20260510210403 | 63 | 256 | 0.9 | 1.7 | 0.00 | 0.00 | 0.00 | 71 | 1019.8 |
| 20260510205902 | 61 | 300 | 3.5 | 4.3 | 0.00 | 0.00 | 0.00 | 73 | 1019.9 |
| 20260510205357 | 61 | 237 | 2.6 | 2.6 | 0.00 | 0.00 | 0.00 | 75 | 1019.5 |
| 20260510204854 | 62 | 286 | 0.9 | 0.9 | 0.00 | 0.00 | 0.00 | 73 | 1019.6 |
| 20260510204350 | 61 | 266 | 2.6 | 2.6 | 0.00 | 0.00 | 0.00 | 74 | 1019.5 |
| 20260510203847 | 59 | 236 | 0.9 | 1.7 | 0.00 | 0.00 | 0.00 | 77 | 1019.6 |
| 20260510203345 | 60 | 225 | 2.6 | 4.3 | 0.00 | 0.00 | 0.00 | 75 | 1019.8 |
| 20260510202840 | 59 | 285 | 3.5 | 5.2 | 0.00 | 0.00 | 0.00 | 77 | 1019.8 |
| 20260510202335 | 59 | 228 | 0.9 | 1.7 | 0.00 | 0.00 | 0.00 | 77 | 1019.6 |
| 20260510201832 | 58 | 251 | 2.6 | 4.3 | 0.00 | 0.00 | 0.00 | 79 | 1019.7 |
| 20260510201329 | 58 | 234 | 3.5 | 5.2 | 0.00 | 0.00 | 0.00 | 79 | 1019.6 |
| 20260510200826 | 58 | 234 | 7.0 | 8.7 | 0.00 | 0.00 | 0.00 | 79 | 1019.4 |
| 20260510200324 | 58 | 237 | 7.0 | 7.8 | 0.00 | 0.00 | 0.00 | 79 | 1019.5 |
| 20260510195819 | 59 | 277 | 2.6 | 2.6 | 0.00 | 0.00 | 0.00 | 78 | 1019.5 |
| 20260510195316 | 59 | 279 | 0.0 | 0.0 | 0.00 | 0.00 | 0.00 | 80 | 1019.3 |
| 20260510194811 | 59 | 269 | 0.9 | 1.7 | 0.00 | 0.00 | 0.00 | 79 | 1019.3 |
| 20260510194308 | 58 | 257 | 2.6 | 2.6 | 0.00 | 0.00 | 0.00 | 80 | 1019.3 |
| 20260510193804 | 58 | 232 | 7.8 | 9.6 | 0.00 | 0.00 | 0.00 | 79 | 1019.1 |
| 20260510193258 | 58 | 233 | 5.2 | 6.1 | 0.00 | 0.00 | 0.00 | 79 | 1019.2 |
| 20260510192755 | 57 | 200 | 0.9 | 2.6 | 0.00 | 0.00 | 0.00 | 82 | 1019.0 |
| 20260510192250 | 57 | 90 | 1.7 | 1.7 | 0.00 | 0.00 | 0.00 | 83 | 1019.0 |
| 20260510191746 | 57 | 204 | 4.3 | 5.2 | 0.00 | 0.00 | 0.00 | 84 | 1019.1 |
| 20260510191242 | 57 | 264 | 4.3 | 5.2 | 0.00 | 0.00 | 0.00 | 83 | 1019.3 |
| 20260510190741 | 56 | 229 | 7.0 | 8.7 | 0.00 | 0.00 | 0.00 | 85 | 1019.2 |
| 20260510190237 | 56 | 257 | 4.3 | 6.1 | 0.00 | 0.00 | 0.00 | 84 | 1019.3 |
| 20260510185733 | 57 | 246 | 5.2 | 6.1 | 0.00 | 0.00 | 0.00 | 83 | 1019.1 |
| 20260510185232 | 57 | 227 | 1.7 | 2.6 | 0.00 | 0.00 | 0.00 | 83 | 1019.3 |
| 20260510184728 | 57 | 251 | 6.1 | 7.0 | 0.00 | 0.00 | 0.00 | 82 | 1018.9 |
| 20260510184225 | 58 | 252 | 2.6 | 4.3 | 0.00 | 0.00 | 0.00 | 81 | 1018.7 |
| 20260510183720 | 58 | 172 | 3.5 | 4.3 | 0.00 | 0.00 | 0.00 | 80 | 1018.9 |
| 20260510183215 | 59 | 221 | 1.7 | 2.6 | 0.00 | 0.00 | 0.00 | 76 | 1018.7 |
| 20260510182712 | 59 | 201 | 3.5 | 4.3 | 0.00 | 0.00 | 0.00 | 73 | 1018.7 |
| 20260510182208 | 59 | 80 | 2.6 | 4.3 | 0.00 | 0.00 | 0.00 | 74 | 1018.7 |
| 20260510181704 | 60 | 164 | 4.3 | 5.2 | 0.00 | 0.00 | 0.00 | 76 | 1018.7 |
| 20260510181202 | 60 | 130 | 0.9 | 1.7 | 0.00 | 0.00 | 0.00 | 74 | 1018.7 |
| 20260510180657 | 59 | 42 | 0.0 | 0.0 | 0.00 | 0.00 | 0.00 | 78 | 1018.6 |
| 20260510180155 | 58 | 80 | 0.0 | 0.0 | 0.00 | 0.00 | 0.00 | 80 | 1018.6 |
| 20260510175651 | 57 | 189 | 3.5 | 4.3 | 0.00 | 0.00 | 0.00 | 80 | 1018.5 |
| 20260510175147 | 57 | 188 | 3.5 | 5.2 | 0.00 | 0.00 | 0.00 | 81 | 1018.3 |
| 20260510174644 | 58 | 167 | 1.7 | 2.6 | 0.00 | 0.00 | 0.00 | 79 | 1018.5 |
| 20260510174142 | 57 | 323 | 0.9 | 0.9 | 0.00 | 0.00 | 0.00 | 80 | 1018.5 |
| 20260510173638 | 56 | 201 | 0.9 | 1.7 | 0.00 | 0.00 | 0.00 | 83 | 1018.3 |
| 20260510173134 | 56 | 165 | 3.5 | 5.2 | 0.00 | 0.00 | 0.00 | 83 | 1018.6 |
| 20260510172629 | 56 | 237 | 0.9 | 1.7 | 0.00 | 0.00 | 0.00 | 83 | 1018.7 |
| 20260510172126 | 57 | 259 | 4.3 | 5.2 | 0.00 | 0.00 | 0.00 | 81 | 1018.8 |
| 20260510171622 | 57 | 204 | 0.9 | 1.7 | 0.00 | 0.00 | 0.00 | 80 | 1018.9 |
| 20260510171120 | 57 | 192 | 2.6 | 2.6 | 0.00 | 0.00 | 0.00 | 79 | 1018.8 |
| 20260510170616 | 57 | 113 | 1.7 | 1.7 | 0.00 | 0.00 | 0.00 | 79 | 1018.7 |
| 20260510170112 | 57 | 101 | 1.7 | 1.7 | 0.00 | 0.00 | 0.00 | 78 | 1018.3 |
| 20260510165603 | 56 | 195 | 1.7 | 1.7 | 0.00 | 0.00 | 0.00 | 79 | 1018.6 |
| 20260510165058 | 56 | 185 | 4.3 | 5.2 | 0.00 | 0.00 | 0.00 | 79 | 1018.6 |
| 20260510164556 | 56 | 181 | 1.7 | 2.6 | 0.00 | 0.00 | 0.00 | 80 | 1018.5 |
| 20260510164052 | 57 | 140 | 3.5 | 4.3 | 0.00 | 0.00 | 0.00 | 79 | 1018.3 |
| 20260510163548 | 57 | 98 | 0.0 | 0.9 | 0.00 | 0.00 | 0.00 | 78 | 1018.2 |
| 20260510163045 | 57 | 254 | 0.9 | 0.9 | 0.00 | 0.00 | 0.00 | 79 | 1018.0 |
| 20260510162539 | 56 | 179 | 0.0 | 0.0 | 0.00 | 0.00 | 0.00 | 80 | 1018.0 |
| 20260510162036 | 55 | 196 | 1.7 | 1.7 | 0.00 | 0.00 | 0.00 | 80 | 1017.9 |
| 20260510161532 | 55 | 95 | 2.6 | 2.6 | 0.00 | 0.00 | 0.00 | 80 | 1017.6 |
| 20260510161028 | 56 | 174 | 3.5 | 4.3 | 0.00 | 0.00 | 0.00 | 80 | 1017.5 |
| 20260510160520 | 55 | 134 | 1.7 | 1.7 | 0.00 | 0.00 | 0.00 | 81 | 1017.5 |
| 20260510160020 | 55 | 144 | 2.6 | 2.6 | 0.00 | 0.00 | 0.00 | 81 | 1017.7 |
| 20260510155516 | 55 | 99 | 2.6 | 2.6 | 0.00 | 0.00 | 0.00 | 81 | 1018.0 |
| 20260510155007 | 55 | 120 | 2.6 | 2.6 | 0.00 | 0.00 | 0.00 | 81 | 1018.1 |
| 20260510154503 | 55 | 153 | 2.6 | 2.6 | 0.00 | 0.00 | 0.00 | 82 | 1018.1 |
| 20260510154002 | 55 | 125 | 1.7 | 2.6 | 0.00 | 0.00 | 0.00 | 81 | 1018.1 |
| 20260510153458 | 55 | 95 | 0.9 | 0.9 | 0.00 | 0.00 | 0.00 | 81 | 1017.9 |
| 20260510152955 | 55 | 63 | 0.9 | 0.9 | 0.00 | 0.00 | 0.00 | 82 | 1017.4 |
| 20260510152452 | 55 | 10 | 0.9 | 0.9 | 0.00 | 0.00 | 0.00 | 82 | 1017.6 |
| 20260510151949 | 55 | 78 | 1.7 | 2.6 | 0.00 | 0.00 | 0.00 | 82 | 1017.1 |
| 20260510151446 | 55 | 10 | 0.0 | 0.9 | 0.00 | 0.00 | 0.00 | 83 | 1017.6 |
| 20260510150942 | 55 | 79 | 0.9 | 0.9 | 0.00 | 0.00 | 0.00 | 82 | 1017.4 |
| 20260510150438 | 55 | 347 | 0.0 | 0.0 | 0.00 | 0.00 | 0.00 | 83 | 1017.6 |
| 20260510145934 | 55 | 148 | 0.0 | 0.0 | 0.00 | 0.00 | 0.00 | 84 | 1018.0 |
| 20260510145431 | 54 | 150 | 0.0 | 0.9 | 0.00 | 0.00 | 0.00 | 84 | 1018.1 |
| 20260510144927 | 54 | 150 | 0.0 | 0.9 | 0.00 | 0.00 | 0.00 | 86 | 1018.0 |
| 20260510144424 | 54 | 115 | 0.9 | 0.9 | 0.00 | 0.00 | 0.00 | 86 | 1017.6 |
| 20260510143919 | 54 | 49 | 1.7 | 1.7 | 0.00 | 0.00 | 0.00 | 86 | 1017.8 |
| 20260510143415 | 53 | 359 | 0.0 | 0.0 | 0.00 | 0.00 | 0.00 | 87 | 1017.8 |
| 20260510142912 | 53 | 109 | 0.9 | 1.7 | 0.00 | 0.00 | 0.00 | 87 | 1017.8 |
| 20260510142409 | 53 | 78 | 0.0 | 0.9 | 0.00 | 0.00 | 0.00 | 87 | 1017.7 |
| 20260510141906 | 53 | 353 | 0.9 | 0.9 | 0.00 | 0.00 | 0.00 | 87 | 1017.8 |
| 20260510141403 | 53 | 70 | 0.9 | 2.6 | 0.00 | 0.00 | 0.00 | 88 | 1017.6 |
| 20260510140859 | 53 | 248 | 0.0 | 0.0 | 0.00 | 0.00 | 0.00 | 88 | 1017.7 |
| 20260510140355 | 53 | 181 | 0.0 | 0.9 | 0.00 | 0.00 | 0.00 | 88 | 1017.7 |
| 20260510135849 | 53 | 136 | 1.7 | 1.7 | 0.00 | 0.00 | 0.00 | 89 | 1017.3 |
| 20260510135345 | 53 | 49 | 2.6 | 2.6 | 0.00 | 0.00 | 0.00 | 89 | 1016.3 |
| 20260510134843 | 53 | 93 | 2.6 | 4.3 | 0.00 | 0.00 | 0.00 | 90 | 1016.8 |
| 20260510134339 | 53 | 123 | 2.6 | 2.6 | 0.00 | 0.00 | 0.00 | 90 | 1017.4 |
| 20260510133835 | 53 | 110 | 0.9 | 0.9 | 0.00 | 0.00 | 0.00 | 90 | 1017.2 |
| 20260510133332 | 52 | 101 | 2.6 | 2.6 | 0.00 | 0.00 | 0.00 | 90 | 1017.0 |
| 20260510132828 | 52 | 84 | 1.7 | 1.7 | 0.00 | 0.00 | 0.00 | 90 | 1017.2 |
| 20260510132326 | 52 | 76 | 0.9 | 0.9 | 0.00 | 0.00 | 0.00 | 90 | 1017.2 |
| 20260510131822 | 52 | 95 | 1.7 | 1.7 | 0.00 | 0.00 | 0.00 | 90 | 1017.5 |
| 20260510131320 | 52 | 113 | 0.9 | 1.7 | 0.00 | 0.00 | 0.00 | 90 | 1017.5 |
| 20260510130816 | 52 | 108 | 0.9 | 0.9 | 0.00 | 0.00 | 0.00 | 90 | 1017.5 |
| 20260510130314 | 52 | 109 | 0.0 | 0.9 | 0.00 | 0.00 | 0.00 | 90 | 1017.6 |
| 20260510125810 | 52 | 113 | 0.9 | 1.7 | 0.00 | 0.00 | 0.00 | 90 | 1017.5 |
| 20260510125307 | 52 | 92 | 1.7 | 1.7 | 0.00 | 0.00 | 0.00 | 90 | 1017.5 |
| 20260510124803 | 52 | 21 | 0.0 | 0.0 | 0.00 | 0.00 | 0.00 | 90 | 1017.4 |
| 20260510124300 | 52 | 20 | 0.9 | 0.9 | 0.00 | 0.00 | 0.00 | 90 | 1017.4 |
| 20260510123755 | 52 | 53 | 1.7 | 1.7 | 0.00 | 0.00 | 0.00 | 90 | 1017.2 |
| 20260510123251 | 52 | 68 | 3.5 | 4.3 | 0.00 | 0.00 | 0.00 | 90 | 1017.6 |
| 20260510122748 | 51 | 65 | 0.9 | 1.7 | 0.00 | 0.00 | 0.00 | 90 | 1017.4 |
| 20260510122244 | 51 | 43 | 0.0 | 0.9 | 0.00 | 0.00 | 0.00 | 90 | 1017.5 |
| 20260510121740 | 51 | 18 | 1.7 | 2.6 | 0.00 | 0.00 | 0.00 | 90 | 1017.4 |
| 20260510121238 | 51 | 19 | 0.9 | 0.9 | 0.00 | 0.00 | 0.00 | 90 | 1017.2 |
| 20260510120730 | 52 | 19 | 0.0 | 0.0 | 0.00 | 0.00 | 0.00 | 90 | 1017.5 |
| 20260510120226 | 52 | 19 | 0.0 | 0.0 | 0.00 | 0.00 | 0.00 | 90 | 1017.5 |
| 20260510115721 | 52 | 18 | 0.0 | 0.9 | 0.00 | 0.00 | 0.00 | 90 | 1017.3 |
| 20260510115220 | 52 | 26 | 0.0 | 0.0 | 0.00 | 0.00 | 0.00 | 89 | 1017.0 |
| 20260510114715 | 52 | 64 | 1.7 | 1.7 | 0.00 | 0.00 | 0.00 | 89 | 1017.1 |
| 20260510114212 | 52 | 59 | 1.7 | 1.7 | 0.00 | 0.00 | 0.00 | 89 | 1017.2 |
| 20260510113707 | 52 | 42 | 0.9 | 0.9 | 0.00 | 0.00 | 0.00 | 89 | 1017.2 |
| 20260510113204 | 52 | 1 | 0.0 | 0.9 | 0.00 | 0.00 | 0.00 | 89 | 1017.3 |
| 20260510112700 | 52 | 15 | 0.9 | 0.9 | 0.00 | 0.00 | 0.00 | 89 | 1017.2 |
| 20260510112158 | 52 | 355 | 0.0 | 0.0 | 0.00 | 0.00 | 0.00 | 89 | 1017.5 |
| 20260510111648 | 51 | 9 | 0.9 | 0.9 | 0.00 | 0.00 | 0.00 | 89 | 1017.1 |
| 20260510111145 | 52 | 329 | 0.0 | 0.0 | 0.00 | 0.00 | 0.00 | 89 | 1016.9 |
| 20260510110639 | 51 | 325 | 0.0 | 0.0 | 0.00 | 0.00 | 0.00 | 89 | 1017.2 |
| 20260510110137 | 51 | 349 | 0.0 | 0.0 | 0.00 | 0.00 | 0.00 | 89 | 1017.2 |
| 20260510105633 | 51 | 317 | 0.0 | 0.0 | 0.00 | 0.00 | 0.00 | 89 | 1017.0 |
| 20260510105132 | 51 | 297 | 0.0 | 0.0 | 0.00 | 0.00 | 0.00 | 90 | 1017.0 |
| 20260510104630 | 51 | 313 | 0.0 | 0.0 | 0.00 | 0.00 | 0.00 | 90 | 1017.0 |
| 20260510104126 | 51 | 323 | 0.0 | 0.0 | 0.00 | 0.00 | 0.00 | 90 | 1016.8 |
| 20260510103623 | 51 | 309 | 0.0 | 0.0 | 0.00 | 0.00 | 0.00 | 90 | 1016.9 |
| 20260510103119 | 51 | 309 | 0.0 | 0.0 | 0.00 | 0.00 | 0.00 | 90 | 1016.9 |
| 20260510102614 | 51 | 301 | 0.0 | 0.0 | 0.00 | 0.00 | 0.00 | 89 | 1016.7 |
| 20260510102110 | 52 | 303 | 0.0 | 0.0 | 0.00 | 0.00 | 0.00 | 89 | 1016.7 |
| 20260510101609 | 52 | 297 | 0.0 | 0.9 | 0.00 | 0.00 | 0.00 | 89 | 1016.6 |
| 20260510101107 | 52 | 299 | 0.9 | 1.7 | 0.00 | 0.00 | 0.00 | 89 | 1016.7 |
| 20260510100602 | 52 | 280 | 0.9 | 0.9 | 0.00 | 0.00 | 0.00 | 89 | 1016.5 |
| 20260510100100 | 52 | 287 | 0.0 | 0.0 | 0.00 | 0.00 | 0.00 | 88 | 1016.5 |
| 20260510095556 | 52 | 299 | 0.0 | 0.0 | 0.00 | 0.00 | 0.00 | 87 | 1016.3 |
| 20260510095055 | 52 | 303 | 0.0 | 0.0 | 0.00 | 0.00 | 0.00 | 87 | 1016.3 |
| 20260510094550 | 53 | 305 | 0.0 | 0.0 | 0.00 | 0.00 | 0.00 | 87 | 1016.4 |
| 20260510094045 | 53 | 305 | 0.0 | 0.9 | 0.00 | 0.00 | 0.00 | 87 | 1016.3 |
| 20260510093542 | 53 | 313 | 0.9 | 0.9 | 0.00 | 0.00 | 0.00 | 87 | 1016.4 |
| 20260510093039 | 53 | 317 | 0.9 | 1.7 | 0.00 | 0.00 | 0.00 | 87 | 1016.3 |
| 20260510092536 | 53 | 301 | 1.7 | 2.6 | 0.00 | 0.00 | 0.00 | 87 | 1016.4 |
| 20260510092035 | 53 | 317 | 0.9 | 0.9 | 0.00 | 0.00 | 0.00 | 87 | 1016.2 |
| 20260510091532 | 53 | 311 | 1.7 | 1.7 | 0.00 | 0.00 | 0.00 | 86 | 1016.3 |
| 20260510091028 | 53 | 305 | 0.9 | 0.9 | 0.00 | 0.00 | 0.00 | 86 | 1016.3 |
| 20260510090520 | 53 | 311 | 0.0 | 0.9 | 0.00 | 0.00 | 0.00 | 86 | 1016.2 |
| 20260510090016 | 53 | 304 | 0.0 | 0.9 | 0.00 | 0.00 | 0.00 | 85 | 1016.0 |
| 20260510085516 | 54 | 308 | 0.9 | 1.7 | 0.00 | 0.00 | 0.00 | 85 | 1016.1 |
| 20260510085012 | 54 | 318 | 0.9 | 1.7 | 0.00 | 0.00 | 0.00 | 85 | 1016.2 |
| 20260510084509 | 54 | 317 | 1.7 | 1.7 | 0.00 | 0.00 | 0.00 | 84 | 1016.1 |
| 20260510084005 | 54 | 313 | 0.9 | 1.7 | 0.00 | 0.00 | 0.00 | 84 | 1016.2 |
| 20260510083502 | 54 | 335 | 1.7 | 2.6 | 0.00 | 0.00 | 0.00 | 84 | 1016.2 |
| 20260510082957 | 54 | 329 | 0.9 | 0.9 | 0.00 | 0.00 | 0.00 | 85 | 1015.8 |
| 20260510082455 | 54 | 312 | 1.7 | 1.7 | 0.00 | 0.00 | 0.00 | 85 | 1016.0 |
| 20260510081955 | 54 | 308 | 1.7 | 1.7 | 0.00 | 0.00 | 0.00 | 85 | 1015.9 |
| 20260510081451 | 54 | 293 | 0.0 | 0.9 | 0.00 | 0.00 | 0.00 | 85 | 1016.1 |
| 20260510080947 | 55 | 314 | 1.7 | 1.7 | 0.00 | 0.00 | 0.00 | 84 | 1016.0 |
| 20260510080445 | 55 | 305 | 0.9 | 0.9 | 0.00 | 0.00 | 0.00 | 83 | 1016.3 |
| 20260510075942 | 55 | 308 | 1.7 | 1.7 | 0.00 | 0.00 | 0.00 | 83 | 1016.0 |
| 20260510075440 | 55 | 298 | 0.0 | 0.9 | 0.00 | 0.00 | 0.00 | 82 | 1016.0 |
| 20260510074937 | 55 | 300 | 0.0 | 0.0 | 0.00 | 0.00 | 0.00 | 82 | 1016.0 |
| 20260510074434 | 55 | 300 | 0.0 | 0.0 | 0.00 | 0.00 | 0.00 | 81 | 1015.9 |
| 20260510073930 | 55 | 312 | 0.0 | 0.0 | 0.00 | 0.00 | 0.00 | 79 | 1016.0 |
| 20260510073426 | 56 | 306 | 0.0 | 0.0 | 0.00 | 0.00 | 0.00 | 78 | 1015.9 |
| 20260510072923 | 56 | 308 | 0.0 | 0.0 | 0.00 | 0.00 | 0.00 | 77 | 1016.0 |
| 20260510072420 | 56 | 326 | 1.7 | 1.7 | 0.00 | 0.00 | 0.00 | 77 | 1016.2 |
| 20260510071915 | 56 | 304 | 0.0 | 0.0 | 0.00 | 0.00 | 0.00 | 79 | 1015.9 |
| 20260510071412 | 56 | 296 | 0.0 | 0.0 | 0.00 | 0.00 | 0.00 | 79 | 1016.0 |
| 20260510070910 | 56 | 290 | 0.0 | 0.0 | 0.00 | 0.00 | 0.00 | 80 | 1016.1 |
| 20260510070407 | 56 | 286 | 0.0 | 0.0 | 0.00 | 0.00 | 0.00 | 80 | 1016.2 |
| 20260510065902 | 56 | 278 | 0.0 | 0.0 | 0.00 | 0.00 | 0.00 | 80 | 1016.0 |
| 20260510065359 | 56 | 288 | 0.0 | 0.0 | 0.00 | 0.00 | 0.00 | 78 | 1015.9 |
| 20260510064855 | 57 | 280 | 1.7 | 1.7 | 0.00 | 0.00 | 0.00 | 78 | 1015.8 |
| 20260510064354 | 57 | 291 | 0.9 | 0.9 | 0.00 | 0.00 | 0.00 | 77 | 1015.9 |
| 20260510063849 | 57 | 347 | 0.9 | 1.7 | 0.00 | 0.00 | 0.00 | 76 | 1015.8 |
| 20260510063346 | 57 | 325 | 1.7 | 1.7 | 0.00 | 0.00 | 0.00 | 75 | 1015.9 |
| 20260510062843 | 57 | 292 | 0.0 | 0.0 | 0.00 | 0.00 | 0.00 | 75 | 1016.0 |
| 20260510062338 | 57 | 293 | 1.7 | 2.6 | 0.00 | 0.00 | 0.00 | 75 | 1016.1 |
| 20260510061834 | 57 | 292 | 0.9 | 0.9 | 0.00 | 0.00 | 0.00 | 75 | 1016.1 |
| 20260510061331 | 57 | 275 | 0.9 | 1.7 | 0.00 | 0.00 | 0.00 | 76 | 1016.0 |
| 20260510060827 | 57 | 299 | 0.0 | 0.9 | 0.00 | 0.00 | 0.00 | 77 | 1016.0 |
| 20260510060324 | 57 | 308 | 0.0 | 0.9 | 0.00 | 0.00 | 0.00 | 77 | 1016.1 |
| 20260510055821 | 57 | 298 | 0.0 | 0.0 | 0.00 | 0.00 | 0.00 | 78 | 1016.1 |
| 20260510055320 | 57 | 289 | 0.0 | 0.0 | 0.00 | 0.00 | 0.00 | 79 | 1016.3 |
| 20260510054819 | 57 | 302 | 0.0 | 0.0 | 0.00 | 0.00 | 0.00 | 78 | 1016.0 |
| 20260510054315 | 57 | 297 | 0.0 | 0.0 | 0.00 | 0.00 | 0.00 | 78 | 1015.9 |
| 20260510053810 | 57 | 287 | 0.9 | 0.9 | 0.00 | 0.00 | 0.00 | 79 | 1016.0 |
| 20260510053305 | 58 | 289 | 0.0 | 0.0 | 0.00 | 0.00 | 0.00 | 78 | 1016.0 |
| 20260510052802 | 58 | 292 | 0.0 | 0.0 | 0.00 | 0.00 | 0.00 | 77 | 1016.0 |
| 20260510052258 | 58 | 277 | 1.7 | 1.7 | 0.00 | 0.00 | 0.00 | 76 | 1016.0 |
| 20260510051754 | 59 | 293 | 0.9 | 0.9 | 0.00 | 0.00 | 0.00 | 77 | 1015.8 |
| 20260510051251 | 58 | 287 | 0.9 | 0.9 | 0.00 | 0.00 | 0.00 | 76 | 1016.2 |
| 20260510050747 | 58 | 313 | 0.0 | 0.0 | 0.00 | 0.00 | 0.00 | 76 | 1016.0 |
| 20260510050239 | 58 | 305 | 0.0 | 0.0 | 0.00 | 0.00 | 0.00 | 77 | 1016.0 |
| 20260510045736 | 58 | 302 | 0.0 | 0.0 | 0.00 | 0.00 | 0.00 | 77 | 1016.0 |
| 20260510045232 | 58 | 309 | 0.0 | 0.9 | 0.00 | 0.00 | 0.00 | 78 | 1016.1 |
| 20260510044729 | 58 | 306 | 0.9 | 1.7 | 0.00 | 0.00 | 0.00 | 78 | 1016.0 |
| 20260510044227 | 59 | 299 | 0.0 | 0.0 | 0.00 | 0.00 | 0.00 | 78 | 1015.8 |
| 20260510043722 | 59 | 295 | 0.0 | 0.0 | 0.00 | 0.00 | 0.00 | 78 | 1015.8 |
| 20260510043219 | 59 | 286 | 0.0 | 0.0 | 0.00 | 0.00 | 0.00 | 78 | 1016.0 |
| 20260510042716 | 59 | 294 | 0.0 | 0.0 | 0.00 | 0.00 | 0.00 | 77 | 1015.9 |
| 20260510042212 | 59 | 307 | 0.0 | 0.0 | 0.00 | 0.00 | 0.00 | 77 | 1015.7 |
| 20260510041709 | 59 | 300 | 1.7 | 1.7 | 0.00 | 0.00 | 0.00 | 77 | 1015.8 |
| 20260510041207 | 59 | 278 | 1.7 | 1.7 | 0.00 | 0.00 | 0.00 | 76 | 1015.8 |
| 20260510040703 | 60 | 288 | 0.0 | 0.9 | 0.00 | 0.00 | 0.00 | 76 | 1015.8 |
| 20260510040200 | 60 | 298 | 1.7 | 2.6 | 0.00 | 0.00 | 0.00 | 76 | 1015.6 |
| 20260510035656 | 60 | 311 | 0.0 | 0.0 | 0.00 | 0.00 | 0.00 | 75 | 1015.7 |
| 20260510035151 | 60 | 291 | 0.9 | 0.9 | 0.00 | 0.00 | 0.00 | 74 | 1016.0 |
| 20260510034648 | 61 | 291 | 1.7 | 1.7 | 0.00 | 0.00 | 0.00 | 74 | 1015.9 |
| 20260510034145 | 61 | 302 | 1.7 | 1.7 | 0.00 | 0.00 | 0.00 | 74 | 1015.7 |
| 20260510033641 | 61 | 298 | 0.0 | 0.9 | 0.00 | 0.00 | 0.00 | 73 | 1015.7 |
| 20260510033139 | 61 | 297 | 0.0 | 0.0 | 0.00 | 0.00 | 0.00 | 73 | 1015.8 |
| 20260510032635 | 61 | 299 | 0.9 | 0.9 | 0.00 | 0.00 | 0.00 | 73 | 1015.7 |
| 20260510032131 | 61 | 299 | 0.0 | 0.0 | 0.00 | 0.00 | 0.00 | 72 | 1015.7 |
| 20260510031626 | 61 | 302 | 0.0 | 0.0 | 0.00 | 0.00 | 0.00 | 72 | 1015.8 |
| 20260510031123 | 62 | 304 | 0.0 | 0.0 | 0.00 | 0.00 | 0.00 | 71 | 1015.9 |
| 20260510030617 | 62 | 308 | 0.9 | 1.7 | 0.00 | 0.00 | 0.00 | 71 | 1015.9 |
| 20260510030115 | 62 | 272 | 0.9 | 1.7 | 0.00 | 0.00 | 0.00 | 71 | 1016.0 |
| 20260510025612 | 62 | 307 | 0.0 | 0.0 | 0.00 | 0.00 | 0.00 | 70 | 1015.8 |
| 20260510025110 | 62 | 312 | 0.0 | 0.0 | 0.00 | 0.00 | 0.00 | 70 | 1015.8 |
| 20260510024606 | 63 | 336 | 0.0 | 1.7 | 0.00 | 0.00 | 0.00 | 69 | 1015.9 |
| 20260510024103 | 63 | 301 | 0.0 | 0.0 | 0.00 | 0.00 | 0.00 | 69 | 1016.0 |
| 20260510023559 | 63 | 301 | 0.0 | 0.0 | 0.00 | 0.00 | 0.00 | 68 | 1016.1 |
| 20260510023057 | 63 | 296 | 0.9 | 0.9 | 0.00 | 0.00 | 0.00 | 68 | 1016.1 |
| 20260510022556 | 63 | 280 | 0.0 | 0.0 | 0.00 | 0.00 | 0.00 | 67 | 1016.2 |
| 20260510022055 | 64 | 307 | 0.0 | 0.0 | 0.00 | 0.00 | 0.00 | 67 | 1016.2 |
| 20260510021547 | 64 | 299 | 3.5 | 4.3 | 0.00 | 0.00 | 0.00 | 66 | 1016.2 |
| 20260510021044 | 64 | 353 | 2.6 | 4.3 | 0.00 | 0.00 | 0.00 | 66 | 1016.2 |
| 20260510020538 | 64 | 345 | 2.6 | 2.6 | 0.00 | 0.00 | 0.00 | 65 | 1016.5 |
| 20260510020034 | 65 | 338 | 0.9 | 0.9 | 0.00 | 0.00 | 0.00 | 64 | 1016.5 |
| 20260510015530 | 65 | 321 | 2.6 | 2.6 | 0.00 | 0.00 | 0.00 | 64 | 1016.3 |
| 20260510015026 | 65 | 308 | 0.9 | 1.7 | 0.00 | 0.00 | 0.00 | 64 | 1016.3 |
| 20260510014523 | 64 | 320 | 0.9 | 0.9 | 0.00 | 0.00 | 0.00 | 65 | 1016.5 |
| 20260510014020 | 64 | 317 | 1.7 | 2.6 | 0.00 | 0.00 | 0.00 | 65 | 1016.8 |
| 20260510013515 | 64 | 311 | 0.0 | 0.9 | 0.00 | 0.00 | 0.00 | 65 | 1017.0 |
| 20260510013011 | 64 | 21 | 5.2 | 6.1 | 0.00 | 0.00 | 0.00 | 66 | 1016.8 |
| 20260510012505 | 65 | 350 | 7.0 | 8.7 | 0.00 | 0.00 | 0.00 | 64 | 1017.2 |
| 20260510012001 | 65 | 333 | 3.5 | 4.3 | 0.00 | 0.00 | 0.00 | 64 | 1016.9 |
| 20260510011455 | 64 | 327 | 4.3 | 4.3 | 0.00 | 0.00 | 0.00 | 65 | 1016.9 |
| 20260510010951 | 64 | 332 | 4.3 | 7.0 | 0.00 | 0.00 | 0.00 | 66 | 1017.1 |
| 20260510010449 | 64 | 333 | 2.6 | 4.3 | 0.00 | 0.00 | 0.00 | 67 | 1017.0 |
| 20260510005946 | 64 | 330 | 1.7 | 1.7 | 0.00 | 0.00 | 0.00 | 66 | 1017.0 |
| 20260510005442 | 64 | 322 | 3.5 | 5.2 | 0.00 | 0.00 | 0.00 | 66 | 1017.1 |
| 20260510004939 | 65 | 316 | 0.9 | 1.7 | 0.00 | 0.00 | 0.00 | 65 | 1017.0 |
| 20260510004436 | 65 | 340 | 3.5 | 5.2 | 0.00 | 0.00 | 0.00 | 66 | 1017.2 |
| 20260510003934 | 65 | 337 | 5.2 | 6.1 | 0.00 | 0.00 | 0.00 | 65 | 1017.3 |
| 20260510003431 | 65 | 293 | 1.7 | 1.7 | 0.00 | 0.00 | 0.00 | 65 | 1017.3 |
| 20260510002930 | 65 | 315 | 3.5 | 4.3 | 0.00 | 0.00 | 0.00 | 64 | 1017.1 |
| 20260510002427 | 66 | 347 | 4.3 | 6.1 | 0.00 | 0.00 | 0.00 | 64 | 1017.5 |
| 20260510001924 | 66 | 324 | 3.5 | 4.3 | 0.00 | 0.00 | 0.00 | 63 | 1017.4 |
| 20260510001421 | 66 | 347 | 2.6 | 4.3 | 0.00 | 0.00 | 0.00 | 63 | 1017.5 |
| 20260510000919 | 67 | 345 | 3.5 | 4.3 | 0.00 | 0.00 | 0.00 | 60 | 1017.6 |
| 20260510000415 | 66 | 348 | 0.9 | 1.7 | 0.00 | 0.00 | 0.00 | 61 | 1017.6 |
| 20260509235911 | 66 | 335 | 1.7 | 1.7 | 0.00 | 0.00 | 0.00 | 61 | 1017.6 |
| 20260509235408 | 66 | 338 | 3.5 | 4.3 | 0.00 | 0.00 | 0.00 | 60 | 1017.9 |
| 20260509234904 | 67 | 302 | 2.6 | 4.3 | 0.00 | 0.00 | 0.00 | 58 | 1017.8 |
| 20260509234402 | 68 | 314 | 3.5 | 4.3 | 0.00 | 0.00 | 0.00 | 54 | 1017.8 |
| 20260509233859 | 67 | 308 | 1.7 | 2.6 | 0.00 | 0.00 | 0.00 | 54 | 1018.0 |
| 20260509233357 | 68 | 311 | 2.6 | 2.6 | 0.00 | 0.00 | 0.00 | 52 | 1017.7 |
| 20260509232852 | 68 | 348 | 2.6 | 4.3 | 0.00 | 0.00 | 0.00 | 52 | 1018.0 |
| 20260509232351 | 68 | 293 | 4.3 | 6.1 | 0.00 | 0.00 | 0.00 | 51 | 1017.8 |
| 20260509231846 | 68 | 314 | 4.3 | 5.2 | 0.00 | 0.00 | 0.00 | 51 | 1018.1 |
| 20260509231343 | 68 | 41 | 1.7 | 1.7 | 0.00 | 0.00 | 0.00 | 50 | 1018.1 |
| 20260509230841 | 67 | 4 | 3.5 | 4.3 | 0.00 | 0.00 | 0.00 | 52 | 1017.9 |
| 20260509230332 | 67 | 347 | 2.6 | 2.6 | 0.00 | 0.00 | 0.00 | 52 | 1018.1 |
| 20260509225827 | 68 | 318 | 3.5 | 4.3 | 0.00 | 0.00 | 0.00 | 52 | 1018.0 |
| 20260509225325 | 68 | 321 | 4.3 | 6.1 | 0.00 | 0.00 | 0.00 | 50 | 1018.5 |
| 20260509224821 | 67 | 355 | 0.9 | 1.7 | 0.00 | 0.00 | 0.00 | 53 | 1018.5 |
| 20260509224317 | 68 | 299 | 1.7 | 2.6 | 0.00 | 0.00 | 0.00 | 52 | 1018.7 |
| 20260509223814 | 67 | 278 | 1.7 | 1.7 | 0.00 | 0.00 | 0.00 | 53 | 1018.6 |
| 20260509223310 | 66 | 294 | 1.7 | 1.7 | 0.00 | 0.00 | 0.00 | 56 | 1018.8 |
| 20260509222807 | 67 | 266 | 3.5 | 4.3 | 0.00 | 0.00 | 0.00 | 53 | 1018.7 |
| 20260509222306 | 67 | 309 | 2.6 | 2.6 | 0.00 | 0.00 | 0.00 | 53 | 1018.8 |
| 20260509221758 | 67 | 323 | 6.1 | 6.1 | 0.00 | 0.00 | 0.00 | 54 | 1018.8 |